[[{"header":{"parameterUnit":"m.s-1","parameterCategory":1,"la1":30.2991,"la2":30.254,"lo1":-89.0895,"lo2":-89.0444,"dy":0.0017,"dx":0.0017,"nx":28,"ny":28,"refTime":"2024-07-26T03:00:00:Z","depth":0,"parameterNumber":2,"parameterNumberName":"U-component_of_WINDS"},"data":[0,0,0,0,0,0,0,0,0,0,0,0,0,0,0,0,0,0,0,0,0,0,0,0,0,0,0,0,0,0,0,0,0,0,0,0,0,0,0,0,0,0,0,0,0,0,0,0,0,0,0,0,0,0,0,0,0,0,-1.1448,-1.1446,0,-1.1243,-1.124,-1.1238,-1.1091,-1.1089,-1.1088,-1.1087,-1.0875,-1.0871,-1.0866,0,0,0,0,0,0,0,0,0,0,0,0,0,-1.1714,-1.171,-1.1448,-1.1445,-1.1443,-1.1243,-1.124,-1.1237,-1.1091,-1.1089,-1.1088,-1.1087,-1.0877,-1.0871,-1.0866,0,0,0,0,0,0,0,0,0,0,0,0,0,-1.1563,-1.1709,-1.1448,-1.1346,-1.1334,-1.1244,-1.124,-1.1237,-1.1091,-1.1089,-1.1088,-1.1086,-1.0878,-1.0872,-1.0865,-1.0859,0,0,-1.0844,-1.0841,0,0,0,0,0,0,0,0,-1.1571,-1.1553,-1.1363,-1.1353,-1.134,-1.119,-1.1256,-1.111,-1.1092,-1.1183,-1.1087,-1.1085,-1.0981,-1.0966,-1.0931,-1.0849,-1.084,-1.0844,-1.084,-1.0837,-1.0835,0,0,0,0,0,0,0,-1.1582,-1.1561,-1.1366,-1.1361,-1.1346,-1.131,-1.1287,-1.1228,-1.1095,-1.1175,-1.1164,-1.1142,-1.0975,-1.0938,-1.0925,-1.0837,-1.0844,-1.0838,-1.0834,-1.0831,-1.0745,-1.0746,0,0,0,0,0,0,-1.1609,-1.1571,-1.1373,-1.136,-1.1454,-1.1307,-1.1281,-1.124,-1.1095,-1.1071,-1.1144,-1.1136,-1.0951,-1.0933,-1.0917,-1.0903,-1.0837,-1.083,-1.0826,-1.0743,-1.0745,-1.0747,0,0,0,0,0,0,-1.1615,-1.1592,-1.1381,-1.1462,-1.1433,-1.1304,-1.126,-1.1237,-1.12,-1.1071,-1.1047,-1.1131,-1.0949,-1.0927,-1.0876,-1.0894,-1.0827,-1.0821,-1.0741,-1.0744,-1.0746,-1.0875,0,0,0,0,0,0,-1.1623,-1.1596,-1.1591,-1.1464,-1.1429,-1.1343,-1.1261,-1.1234,-1.1189,-1.1177,-1.1053,-1.103,-1.0945,-1.0887,-1.0869,-1.0883,-1.0816,-1.0739,-1.0742,-1.0745,-1.0868,-1.0881,-1.0893,0,0,0,0,0,-1.1633,-1.1634,-1.1592,-1.1569,-1.1421,-1.1344,-1.1325,-1.1227,-1.1191,-1.1187,-1.1105,-1.1034,-1.0895,-1.0883,-1.0862,-1.0874,-1.0737,-1.0741,-1.0745,-1.0863,-1.0879,-1.0892,0,0,0,0,0,0,-1.1764,-1.1615,-1.1566,-1.1526,-1.145,-1.132,-1.131,-1.1247,-1.1178,-1.1169,-1.1051,-1.1024,-1.0987,-1.0925,-1.0914,-1.0863,-1.0808,-1.0808,-1.0904,-1.0919,-1.0931,-1.0946,-1.081,0,0,0,0,0,-1.1789,-1.174,-1.1612,-1.1588,-1.1553,-1.1439,-1.1402,-1.1334,-1.1249,-1.1216,-1.1129,-1.105,-1.0989,-1.095,-1.0886,-1.0859,-1.0832,-1.0858,-1.087,-1.0881,-1.0882,-1.0867,-1.0878,-1.076,-1.076,-1.076,0,0,-1.1839,-1.1751,-1.1726,-1.1613,-1.1545,-1.1498,-1.1412,-1.1364,-1.1327,-1.1208,-1.1155,-1.1091,-1.0994,-1.0957,-1.0935,-1.0904,-1.0909,-1.0886,-1.0896,-1.089,-1.0872,-1.0884,-1.0894,-1.0763,-1.0762,-1.0762,0,0,-1.1904,-1.1833,-1.1807,-1.1743,-1.1643,-1.1568,-1.1563,-1.1444,-1.1397,-1.1343,-1.1253,-1.1209,-1.1105,-1.1041,-1.0995,-1.1044,-1.0978,-1.1027,-1.109,-1.1077,-1.1086,-1.1094,-1.1114,-1.1122,-1.1029,-1.1029,-1.1029,0,-1.1978,-1.1902,-1.1802,-1.176,-1.1714,-1.1607,-1.1582,-1.1524,-1.1408,-1.1379,-1.1346,-1.1217,-1.1144,-1.1092,-1.1105,-1.107,-1.1062,-1.1039,-1.1093,-1.11,-1.1106,-1.1123,-1.113,-1.1036,-1.1035,-1.1034,-1.1034,0,-1.1999,-1.1949,-1.194,-1.1835,-1.1787,-1.1754,-1.165,-1.1615,-1.1553,-1.1483,-1.1431,-1.1341,-1.1259,-1.1242,-1.118,-1.1183,-1.1167,-1.1116,-1.1057,-1.1125,-1.114,-1.1145,-1.1045,-1.1043,-1.1041,-1.1039,0,0,-1.2137,-1.1981,-1.1979,-1.1932,-1.1817,-1.1776,-1.174,-1.1662,-1.1635,-1.1561,-1.1528,-1.1446,-1.1399,-1.1347,-1.1278,-1.1267,-1.1315,-1.1216,-1.1212,-1.1239,-1.1315,-1.1355,-1.1364,-1.1271,-1.1272,-1.1273,-1.1324,0,-1.2186,-1.2115,-1.2027,-1.1986,-1.1941,-1.1841,-1.181,-1.1737,-1.1672,-1.1624,-1.1551,-1.1496,-1.1437,-1.1406,-1.139,-1.1312,-1.1329,-1.1307,-1.1241,-1.124,-1.1268,-1.1371,-1.1411,-1.1464,-1.1329,-1.1329,-1.133,0,-1.2231,-1.2166,-1.2123,-1.2017,-1.1994,-1.1967,-1.1891,-1.1846,-1.1763,-1.1716,-1.1662,-1.1589,-1.1547,-1.1497,-1.144,-1.1428,-1.1396,-1.1354,-1.1354,-1.1343,-1.1289,-1.1364,-1.1477,-1.1486,-1.1338,-1.1337,-1.1336,0,-1.2339,-1.224,-1.2202,-1.2164,-1.2039,-1.2023,-1.197,-1.1885,-1.1846,-1.1779,-1.1753,-1.1682,-1.1644,-1.1592,-1.1502,-1.1473,-1.1456,-1.1397,-1.1417,-1.142,-1.1416,-1.1418,-1.1527,-1.1396,-1.1396,-1.1396,-1.1396,0,-1.2403,-1.238,-1.2249,-1.2226,-1.2199,-1.2099,-1.2075,-1.2013,-1.194,-1.1903,-1.1813,-1.1781,-1.1665,-1.162,-1.155,-1.1515,-1.1498,-1.146,-1.1442,-1.1468,-1.1473,-1.1445,-1.1439,-1.1398,-1.1398,-1.1397,-1.1397,0,-1.2517,-1.2428,-1.2381,-1.2268,-1.224,-1.2225,-1.2129,-1.2103,-1.2035,-1.1991,-1.1975,-1.1867,-1.181,-1.1717,-1.1631,-1.1585,-1.1563,-1.1532,-1.1592,-1.158,-1.1606,-1.1606,-1.1701,-1.171,-1.1574,-1.1576,-1.1577,0,-1.2563,-1.2544,-1.2432,-1.2402,-1.2353,-1.2306,-1.2267,-1.2169,-1.2131,-1.2039,-1.2025,-1.1962,-1.1905,-1.1819,-1.1734,-1.1669,-1.1636,-1.1675,-1.1626,-1.1655,-1.1638,-1.1641,-1.164,-1.1685,-1.1687,-1.1689,-1.169,0,-1.2655,-1.2614,-1.2561,-1.2494,-1.2451,-1.2393,-1.233,-1.2311,-1.22,-1.2163,-1.2104,-1.2062,-1.1977,-1.1916,-1.1841,-1.1786,-1.1721,-1.1707,-1.1708,-1.1735,-1.1771,-1.1754,-1.1623,-1.1705,-1.1703,-1.1702,-1.1701,-1.1701,-1.2737,-1.2718,-1.2637,-1.2582,-1.2526,-1.2472,-1.2443,-1.2374,-1.2324,-1.2249,-1.2194,-1.2141,-1.2062,-1.1955,-1.1905,-1.1863,-1.1833,-1.1834,-1.1835,-1.1837,-1.1848,-1.1779,-1.1848,-1.1848,-1.1847,-1.1847,-1.1846,0,-1.2826,-1.2771,-1.2722,-1.264,-1.2598,-1.2542,-1.2472,-1.244,-1.2395,-1.2328,-1.2276,-1.2212,-1.2154,-1.2066,-1.2001,-1.1985,-1.1953,-1.1971,-1.1971,-1.196,-1.1877,-1.1883,-1.1998,-1.1998,-1.1998,-1.1998,-1.1998,-1.1998,-1.2867,-1.2833,-1.2783,-1.272,-1.2664,-1.2613,-1.2578,-1.2528,-1.2475,-1.2408,-1.236,-1.2304,-1.2229,-1.2159,-1.2105,-1.208,-1.2061,-1.2089,-1.2056,-1.198,-1.1966,-1.1952,-1.1957,-1.2085,-1.2086,-1.2142,-1.2143,-1.2143]},{"header":{"parameterUnit":"m.s-1","parameterCategory":1,"la1":30.2991,"la2":30.254,"lo1":-89.0895,"lo2":-89.0444,"dy":0.0017,"dx":0.0017,"nx":28,"ny":28,"refTime":"2024-07-26T03:00:00:Z","depth":0,"parameterNumber":3,"parameterNumberName":"V-component_of_WINDS"},"data":[0,0,0,0,0,0,0,0,0,0,0,0,0,0,0,0,0,0,0,0,0,0,0,0,0,0,0,0,0,0,0,0,0,0,0,0,0,0,0,0,0,0,0,0,0,0,0,0,0,0,0,0,0,0,0,0,0,0,-1.8789,-1.879,0,-1.8923,-1.8924,-1.8926,-1.903,-1.9031,-1.9032,-1.9033,-1.9164,-1.9167,-1.9169,0,0,0,0,0,0,0,0,0,0,0,0,0,-1.8617,-1.862,-1.8788,-1.879,-1.8792,-1.8923,-1.8924,-1.8926,-1.903,-1.9031,-1.9032,-1.9033,-1.9164,-1.9167,-1.917,0,0,0,0,0,0,0,0,0,0,0,0,0,-1.8715,-1.862,-1.8788,-1.8859,-1.8867,-1.8922,-1.8924,-1.8927,-1.9029,-1.9031,-1.9032,-1.9034,-1.9163,-1.9166,-1.917,-1.9164,0,0,-1.9182,-1.9183,0,0,0,0,0,0,0,0,-1.8709,-1.8721,-1.8847,-1.8855,-1.8863,-1.8961,-1.8912,-1.9006,-1.9029,-1.8967,-1.9033,-1.9035,-1.9095,-1.9105,-1.9126,-1.917,-1.9175,-1.9182,-1.9184,-1.9186,-1.9187,0,0,0,0,0,0,0,-1.8702,-1.8716,-1.8841,-1.8849,-1.8859,-1.8883,-1.8899,-1.8931,-1.9021,-1.8973,-1.8981,-1.8996,-1.91,-1.9122,-1.913,-1.9177,-1.9182,-1.9185,-1.9188,-1.9189,-1.9224,-1.9222,0,0,0,0,0,0,-1.8685,-1.871,-1.8837,-1.8846,-1.8789,-1.8885,-1.8902,-1.8928,-1.9021,-1.9037,-1.8994,-1.9,-1.9115,-1.9126,-1.9135,-1.9136,-1.9186,-1.919,-1.9192,-1.9225,-1.9223,-1.9222,0,0,0,0,0,0,-1.8681,-1.8696,-1.8832,-1.878,-1.8799,-1.8886,-1.8914,-1.893,-1.8953,-1.9037,-1.9053,-1.9001,-1.9117,-1.913,-1.9157,-1.9142,-1.9191,-1.9195,-1.9227,-1.9225,-1.9223,-1.9135,0,0,0,0,0,0,-1.8676,-1.8694,-1.8693,-1.8779,-1.8801,-1.8852,-1.8913,-1.8932,-1.896,-1.8969,-1.9048,-1.9062,-1.9119,-1.915,-1.916,-1.9148,-1.9198,-1.9229,-1.9226,-1.9223,-1.914,-1.913,-1.9122,0,0,0,0,0,-1.8669,-1.8661,-1.8693,-1.8707,-1.8803,-1.8851,-1.8864,-1.8931,-1.8958,-1.8958,-1.9012,-1.906,-1.9141,-1.9152,-1.9164,-1.9153,-1.923,-1.9227,-1.9224,-1.9143,-1.9132,-1.9122,0,0,0,0,0,0,-1.8569,-1.8674,-1.871,-1.873,-1.8781,-1.8869,-1.8871,-1.8916,-1.8959,-1.8965,-1.9044,-1.9061,-1.908,-1.9119,-1.9129,-1.9152,-1.9192,-1.9191,-1.9126,-1.9116,-1.9107,-1.9098,-1.9201,0,0,0,0,0,-1.855,-1.8582,-1.8671,-1.868,-1.8704,-1.8782,-1.8806,-1.8853,-1.8909,-1.893,-1.8987,-1.9037,-1.9074,-1.9097,-1.9136,-1.9145,-1.9164,-1.9143,-1.9134,-1.9126,-1.9125,-1.9134,-1.9126,-1.9212,-1.9212,-1.9212,0,0,-1.8509,-1.857,-1.8585,-1.8661,-1.8707,-1.8737,-1.88,-1.8829,-1.8852,-1.8934,-1.8964,-1.9007,-1.9068,-1.9087,-1.9098,-1.912,-1.9106,-1.9122,-1.9116,-1.9119,-1.913,-1.9122,-1.9115,-1.9209,-1.921,-1.921,0,0,-1.8452,-1.8501,-1.8515,-1.856,-1.8628,-1.8681,-1.8684,-1.8765,-1.8797,-1.8829,-1.8892,-1.8919,-1.8981,-1.9023,-1.9052,-1.9011,-1.9057,-1.9021,-1.8976,-1.8983,-1.8977,-1.8971,-1.8958,-1.8952,-1.9019,-1.9019,-1.9019,0,-1.8393,-1.8443,-1.8516,-1.8542,-1.8574,-1.8651,-1.8666,-1.8705,-1.8781,-1.8801,-1.8824,-1.8905,-1.8952,-1.8982,-1.8972,-1.8993,-1.8999,-1.9013,-1.8972,-1.8967,-1.8963,-1.8951,-1.8946,-1.9014,-1.9015,-1.9015,-1.9016,0,-1.8368,-1.8401,-1.8404,-1.8479,-1.8511,-1.853,-1.8605,-1.8628,-1.8672,-1.8721,-1.8752,-1.8811,-1.8864,-1.8874,-1.8916,-1.891,-1.8922,-1.8958,-1.8999,-1.8949,-1.894,-1.8936,-1.9008,-1.9009,-1.9011,-1.9012,0,0,-1.8252,-1.8368,-1.8368,-1.8404,-1.8485,-1.8512,-1.8534,-1.8588,-1.8607,-1.8656,-1.8678,-1.8729,-1.8763,-1.8796,-1.8844,-1.885,-1.8816,-1.8885,-1.8888,-1.8872,-1.8814,-1.8788,-1.8782,-1.8846,-1.8845,-1.8845,-1.8809,0,-1.8209,-1.8258,-1.8324,-1.835,-1.8382,-1.8456,-1.8476,-1.8527,-1.8573,-1.8606,-1.8656,-1.8693,-1.8734,-1.8755,-1.8764,-1.8818,-1.8805,-1.8821,-1.8866,-1.8867,-1.885,-1.8776,-1.8749,-1.8713,-1.8806,-1.8805,-1.8805,0,-1.8166,-1.8215,-1.8244,-1.8325,-1.8341,-1.8358,-1.8413,-1.8443,-1.8502,-1.8536,-1.8573,-1.8625,-1.8652,-1.8688,-1.8726,-1.8735,-1.8757,-1.8786,-1.8786,-1.8795,-1.8834,-1.8784,-1.8703,-1.8698,-1.8799,-1.88,-1.88,0,-1.8082,-1.8154,-1.8182,-1.8209,-1.8303,-1.8313,-1.8352,-1.8413,-1.8442,-1.8489,-1.8508,-1.8556,-1.8583,-1.8619,-1.8682,-1.8702,-1.8713,-1.8755,-1.8742,-1.874,-1.8742,-1.8741,-1.8665,-1.8753,-1.8753,-1.8753,-1.8753,0,-1.8029,-1.8044,-1.8145,-1.8162,-1.8182,-1.8256,-1.8273,-1.8318,-1.8372,-1.8398,-1.8463,-1.8486,-1.8567,-1.8599,-1.8648,-1.8673,-1.8684,-1.8711,-1.8724,-1.8707,-1.8703,-1.8723,-1.8728,-1.8752,-1.8752,-1.8752,-1.8752,0,-1.7938,-1.8007,-1.8042,-1.8128,-1.815,-1.816,-1.8233,-1.8252,-1.8302,-1.8334,-1.8346,-1.8424,-1.8465,-1.8532,-1.8591,-1.8624,-1.864,-1.8661,-1.8621,-1.863,-1.8613,-1.8615,-1.8549,-1.8544,-1.8632,-1.8631,-1.8631,0,-1.7901,-1.7915,-1.8003,-1.8027,-1.8064,-1.81,-1.813,-1.8203,-1.8232,-1.83,-1.831,-1.8357,-1.8399,-1.846,-1.8521,-1.8567,-1.8591,-1.8564,-1.8598,-1.858,-1.8592,-1.8591,-1.8594,-1.8557,-1.8555,-1.8554,-1.8554,0,-1.7828,-1.7862,-1.7903,-1.7957,-1.7991,-1.8036,-1.8084,-1.8099,-1.8183,-1.821,-1.8255,-1.8287,-1.8349,-1.8394,-1.8448,-1.8487,-1.8534,-1.8542,-1.8542,-1.8525,-1.8502,-1.8516,-1.8602,-1.8544,-1.8545,-1.8546,-1.8546,-1.8546,-1.7765,-1.7782,-1.7847,-1.7891,-1.7935,-1.7979,-1.8001,-1.8054,-1.8093,-1.8151,-1.8191,-1.8232,-1.8291,-1.837,-1.8405,-1.8438,-1.8459,-1.8458,-1.8458,-1.8457,-1.8451,-1.8495,-1.8447,-1.8448,-1.8448,-1.8448,-1.8449,0,-1.7698,-1.7743,-1.7783,-1.7849,-1.7884,-1.7926,-1.7982,-1.8007,-1.8044,-1.8095,-1.8135,-1.8185,-1.823,-1.8294,-1.8343,-1.8356,-1.8379,-1.8367,-1.8367,-1.8376,-1.8429,-1.8425,-1.8348,-1.8348,-1.8348,-1.8348,-1.8348,-1.8348,-1.7667,-1.7698,-1.7738,-1.7791,-1.7836,-1.7879,-1.7907,-1.7947,-1.7989,-1.8043,-1.8081,-1.8123,-1.818,-1.8233,-1.8275,-1.8293,-1.8308,-1.8289,-1.8314,-1.8362,-1.8372,-1.8381,-1.8378,-1.8292,-1.8292,-1.8259,-1.8258,-1.8258]}]]